Location: Brno
(49.2000°N, 16.6330°E)
Time: 01:41:20
(UTC+02:00)

Cosmos 332 Rocket - Visible Passes

Search period start: 03 September 2014 00:00
Search period end: 13 September 2014 00:00
Orbit: 685 x 706 km, 74.0° (Epoch: 02 September)

Date Brightness Start Highest point End Pass type
(mag) Time Alt. Az. Time Alt. Az. Time Alt. Az.
03 Sep 6.1 02:45:11 10° N 02:49:01 23° NE 02:52:51 10° ESE visible
03 Sep 3.8 04:25:09 10° NNW 04:29:56 61° WSW 04:34:43 10° S visible
03 Sep 7.0 20:37:21 10° WNW 20:39:14 12° NW 20:41:08 10° NNW visible
04 Sep 6.8 01:48:03 10° NNE 01:49:38 11° NE 01:51:13 10° ENE visible
04 Sep 4.4 03:26:30 10° NNW 03:31:17 55° ENE 03:36:03 10° SE visible
04 Sep 5.0 05:07:46 10° NW 05:11:24 22° W 05:15:03 10° SSW visible
05 Sep 5.9 02:28:18 10° N 02:32:18 25° NE 02:36:18 10° ESE visible
05 Sep 3.9 04:08:24 10° NNW 04:13:07 54° WSW 04:16:02 22° S visible
05 Sep 7.0 20:21:12 10° WNW 20:22:34 11° NW 20:23:56 10° NNW visible
06 Sep 6.7 01:30:53 10° NNE 01:32:58 13° NE 01:35:02 10° ENE visible
06 Sep 4.2 03:09:41 10° NNW 03:14:31 62° ENE 03:16:11 39° SE visible
06 Sep 5.1 04:51:09 10° NW 04:54:33 19° W 04:54:48 19° WSW visible
07 Sep 5.7 02:11:25 10° N 02:15:35 27° NE 02:17:03 23° E visible
07 Sep 4.2 03:51:39 10° NNW 03:55:42 45° W 03:55:42 45° W visible
07 Sep 7.2 20:05:33 10° NW 20:05:54 10° NW 20:06:15 10° NW visible
08 Sep 6.5 01:13:49 10° NNE 01:16:17 14° NE 01:18:18 11° ENE visible
08 Sep 4.3 02:52:53 10° NNW 02:56:58 58° NNE 02:56:58 58° NNE visible
08 Sep 5.7 04:34:36 10° WNW 04:35:38 13° WNW 04:35:38 13° WNW visible
09 Sep 5.5 01:54:33 10° N 01:58:27 30° NE 01:58:27 30° NE visible
09 Sep 5.3 03:34:54 10° NW 03:37:08 25° NW 03:37:08 25° NW visible
10 Sep 6.3 00:56:49 10° N 00:59:36 15° NE 01:00:04 15° NE visible
10 Sep 5.2 02:36:04 10° NNW 02:38:46 33° NNW 02:38:46 33° NNW visible
11 Sep 5.7 01:37:41 10° N 01:40:31 27° NNE 01:40:31 27° NNE visible
11 Sep 5.9 03:18:11 10° NW 03:19:13 16° NW 03:19:13 16° NW visible
12 Sep 6.3 00:39:50 10° N 00:42:21 16° NE 00:42:21 16° NE visible
12 Sep 5.8 02:19:16 10° NNW 02:21:03 23° NNW 02:21:03 23° NNW visible
